Home   Weather   Ratingen   Past weeks
Flag for Germany

Past Weather in Ratingen, North Rhine-Westphalia, Germany — Yesterday and Last 2 Weeks

Now
66 °F

Passing clouds.


Feels Like: 66 °F
Forecast: 64 / 52 °F
Wind: 13 mph from Southwest

Location: Duesseldorf

Current Time: May 26, 2019 at 1:35:30 pm

Latest Report: May 26, 2019 at 12:50 pm


Visibility: N/A

Pressure: 29.95 "Hg

Humidity: 60%

Dew Point: 52 °F

Location of RatingenLocation

Past Weather in Ratingen — Graph

°F

Ratingen Temperature Yesterday

Maximum temperature yesterday: 68 °F (at 4:50 pm)
Minimum temperature yesterday: 45 °F (at 4:20 am)
Average temperature yesterday: 58 °F

High & Low Weather Summary for the Past Weeks

 TemperatureHumidityPressure
High75 °F (May 24, 1:50 pm)100% (May 17, 1:20 am)30.69 "Hg (May 17, 1:20 am)
Low37 °F (May 13, 5:50 am)25% (May 13, 3:50 pm)29.65 "Hg (May 19, 12:50 pm)
Average55 °F70%30.06 "Hg
* Reported May 11 12:20 pm — May 26 12:20 pm, Ratingen. Weather by CustomWeather, © 2019

Note: Actual official high and low records may vary slightly from our data, if they occured in-between our weather recording intervals... More about our weather records

Advertising

Ratingen Weather History for the Previous 24 Hours

Scroll right to see more
 ConditionsComfort  
Time TempWeatherWind HumidityBarometerVisibility
12:20 pm
Sun, May 26
66 °FPassing clouds.10 mph60%29.95 "HgN/A
11:50 am64 °FPassing clouds.12 mph64%29.95 "HgN/A
11:20 am64 °FPassing clouds.9 mph64%29.95 "HgN/A
10:50 am64 °FSunny.12 mph64%29.98 "Hg10 mi
10:20 am63 °FPassing clouds.9 mph68%29.98 "HgN/A
9:50 am61 °FSunny.9 mph72%29.98 "Hg10 mi
9:20 am61 °FPassing clouds.8 mph72%29.98 "HgN/A
8:50 am59 °FPassing clouds.9 mph72%29.98 "HgN/A
8:20 am57 °FPassing clouds.8 mph77%29.98 "HgN/A
7:50 am55 °FSunny.9 mph82%29.98 "Hg10 mi
7:20 am55 °FClear.8 mph82%29.98 "Hg5 mi
6:50 am54 °FClear.7 mph88%29.98 "Hg5 mi
6:20 am54 °FClear.7 mph88%29.98 "Hg6 mi
5:50 am50 °FClear.6 mph94%30.01 "Hg6 mi
5:20 am50 °FPassing clouds.7 mph88%30.01 "HgN/A
4:50 am48 °FPassing clouds.7 mph94%30.01 "HgN/A
4:20 am50 °FPassing clouds.8 mph88%30.01 "HgN/A
3:50 am50 °FPassing clouds.6 mph88%30.01 "HgN/A
3:20 am50 °FClear.7 mph88%30.01 "Hg10 mi
2:50 am48 °FClear.2 mph94%30.01 "Hg10 mi
2:20 am48 °FClear.1 mph94%30.01 "Hg10 mi
1:50 am50 °FCool.2 mph88%30.01 "HgN/A
1:20 am50 °FClear.1 mph94%30.01 "Hg10 mi
12:50 am50 °FClear.1 mph88%30.04 "Hg10 mi
12:20 am52 °FClear.1 mph88%30.04 "Hg10 mi
11:50 pm
Sat, May 25
54 °FClear.1 mph82%30.04 "Hg10 mi
11:20 pm54 °FClear.1 mph82%30.04 "Hg10 mi
10:50 pm55 °FClear.3 mph77%30.04 "Hg10 mi
10:20 pm59 °FClear.6 mph68%30.04 "Hg10 mi
9:50 pm61 °FClear.5 mph59%30.04 "Hg10 mi
9:20 pm63 °FSunny.3 mph56%30.01 "Hg10 mi
8:50 pm63 °FSunny.3 mph59%30.01 "Hg10 mi
8:20 pm64 °FSunny.2 mph52%30.01 "Hg10 mi
7:50 pm64 °FSunny.5 mph56%30.01 "Hg10 mi
7:20 pm66 °FSunny.6 mph49%30.01 "Hg10 mi
6:50 pm68 °FPassing clouds.8 mph46%30.01 "HgN/A
6:20 pm68 °FPassing clouds.7 mph46%30.01 "HgN/A
5:50 pm66 °FPassing clouds.7 mph49%30.01 "HgN/A
5:20 pm68 °FSunny.9 mph46%30.01 "Hg10 mi
4:50 pm68 °FPassing clouds.8 mph43%30.01 "HgN/A
4:20 pm66 °FPassing clouds.8 mph46%30.04 "HgN/A
3:50 pm66 °FPassing clouds.8 mph49%30.04 "HgN/A
3:20 pm64 °FPassing clouds.6 mph52%30.04 "HgN/A
2:50 pm66 °FScattered clouds.6 mph52%30.04 "HgN/A
2:20 pm66 °FPassing clouds.8 mph52%30.04 "HgN/A
1:50 pm64 °FScattered clouds.5 mph52%30.04 "HgN/A
1:20 pm63 °FPassing clouds.8 mph56%30.04 "HgN/A
Weather by CustomWeather, © 2019

See weather overview